SCP
0 0 0 0 0 0 -0 -0 -0 -0 -0 -0 -0 -0 -0 -0 -0 -0 -0 -0 -0 -0 -0 -0 -0 -0 -0 -0 -0 -0 -0 -0 -0 -0 -0 -0 -0 -0 -0 -0 0 -0 -0
0 0 0 0 0 0 -0 -0 -0 -0 -0 -0 -0 -0 0 0 0 -0 -0 -0 -0 -0 -0 -0 -0 -0 -0 0 0 -0 -0 -0 0 -0 -0 -0 -0 -0 -0 -0 -0 -0 -0
0 0 0 0 0 0 0 -0 -0 -0 -0 -0 -0 0 0 0 0 -0 -0 -0 -0 -0 -0 -0 -0 -0 0 0 -0 0 0 0 0 0 -0 -0 -0 -0 -0 -0 -0 -0 -0
0 0 0 0 0 0 -0 -0 -0 -0 -0 -0 -0 0 0 0 0 0 -0 0 0 -0 -0 -0 -0 -0 -0 0 0 0 0 0 0 0 0 -0 -0 -0 -0 -0 0 0 0
-0 -0 0 0 -0 0 -0 -0 -0 -0 -0 -0 -0 0 0 0 0 0 0 0 0 0 0 0 0 0 0 0 0 0 0 -0 0 0 0 0 0 0 0 0 0 0 0
-0 -0 -0 -0 -0 -0 -0 -0 -0 -0 -0 -0 -0 0 0 0 0 0 0 0 0 0 -0 0 0 0 0 0 0 0 -0 -0 0 0 -0 0 0 0 0 0 0 0 0
-0 -0 -0 -0 -0 -0 -0 -0 -0 -0 -0 -0 -0 0 -0 0 0 0 0 0 0 0 0 0 0 0 0 0 0 0 -0 0 0 -0 -0 0 0 0 0 1 0 0 0
-0 -0 -0 -0 -0 -0 -0 -0 -0 -0 -0 -0 -0 -0 -0 0 0 0 0 0 0 0 0 0 0 0 0 0 0 0 0 -0 -0 -0 -0 0 0 0 0 0 0 0 0
-0 -0 0 0 0 -0 -0 -0 -0 -0 -0 -0 -0 0 0 0 0 0 0 0 0 0 0 0 0 0 0 0 0 -0 -0 -0 -0 0 0 0 0 0 0 0 1 0 0
-0 -0 0 0 0 0 0 -0 -0 -0 -0 0 0 0 0 0 0 0 0 0 0 0 0 0 0 0 0 0 -0 -0 -0 -0 0 0 0 0 -0 0 0 1 1 1 0
-0 -0 0 0 0 0 0 0 0 -0 -0 0 0 0 0 0 0 0 0 0 0 0 0 0 0 0 0 -0 -1 -1 -0 0 -0 0 0 -0 -0 0 0 1 1 1 0
-0 -0 0 -0 0 0 0 -0 -0 -0 -0 0 0 0 0 0 0 0 0 0 0 0 0 0 -0 -0 -0 -0 -0 -1 -0 -0 0 0 0 -0 0 0 0 0 1 1 0
-0 -0 0 -0 -0 -0 -0 -0 -0 0 0 0 0 0 0 0 0 0 0 0 0 0 0 0 0 0 -1 -0 -0 -0 -0 -0 0 -0 0 -0 0 0 0 0 0 0 0
-0 -0 -0 -0 0 -0 0 0 0 0 0 0 0 0 1 1 0 0 1 0 0 0 0 0 -0 0 -0 -0 -0 0 0 0 -0 0 0 0 0 0 0 0 0 0 0
-0 -0 -0 -0 0 0 0 0 0 0 0 0 0 0 0 1 1 0 -0 0 0 -0 0 -0 0 0 0 0 0 -0 -0 0 -0 -0 0 0 0 0 0 0 0 0 0
0 -0 -0 -0 0 0 0 0 0 0 0 0 0 0 1 0 0 0 0 0 0 0 1 0 0 0 0 -0 0 0 -0 -0 -0 0 0 0 0 0 0 0 0 0 0
-0 -0 -0 -0 0 0 0 0 0 0 -0 0 0 0 0 0 -0 0 0 0 0 1 0 0 0 -0 0 0 0 0 0 0 0 -0 0 0 0 0 0 0 0 0 0
0 -0 -0 -0 -0 0 0 0 0 0 0 0 -0 -0 0 0 0 0 0 0 0 0 0 0 -0 -0 -0 -0 0 -0 0 0 -0 0 -0 0 0 0 0 0 0 0 0
-0 -0 0 0 -0 0 -0 0 0 0 0 0 -0 0 -0 0 0 0 0 0 0 0 0 0 -0 -0 0 -0 -0 0 0 -0 0 -0 0 0 0 0 0 0 0 0 0
-0 -0 -0 0 0 0 0 0 -0 0 0 0 0 0 0 0 0 0 0 0 0 0 0 0 -0 -0 -0 0 -0 0 -0 -0 0 0 0 0 0 0 0 -0 0 0 0
-0 -0 -0 -0 0 0 0 0 0 -0 0 0 0 -0 0 0 0 0 0 -0 0 0 -0 -0 -0 -0 -0 0 0 -0 -0 -0 -0 -0 0 0 0 0 0 0 0 -0 0
-1 -0 -0 -0 -0 -0 0 0 0 0 0 0 0 0 -0 0 0 0 0 0 0 0 0 0 -0 -0 -0 0 -0 0 0 -0 0 0 0 0 -0 0 0 0 0 0 0
-1 -1 -1 -1 -0 0 -0 0 0 0 -0 0 0 -0 0 0 0 0 0 0 0 0 0 -0 -0 -0 -0 -0 0 -0 -0 -0 -0 0 -0 0 0 0 0 0 -0 0 0
0 -1 -1 -0 -1 0 -0 -0 -0 0 0 0 0 0 0 0 -0 0 0 0 0 0 0 0 0 -0 0 0 0 0 0 0 0 0 0 0 0 0 -0 0 -0 0 0
-0 -1 -1 -1 -1 -0 0 -0 -0 0 -0 0 0 0 0 0 0 0 0 0 0 0 0 0 0 0 0 0 -0 0 0 0 0 0 0 0 0 0 0 0 0 0 -0
-1 -1 -1 -1 -0 -0 -0 -0 0 0 0 0 0 0 -0 0 0 0 0 0 0 0 0 0 0 0 0 -0 -0 -0 -0 0 0 -0 -0 -0 0 0 0 0 0 0 -0
Wind_Speed_500mb
17 15 11 15 19 22 20 20 19 20 21 18 16 16 15 16 18 19 19 17 19 23 25 27 30 27 27 30 30 28 27 26 28 29 28 30 32 29 34 36 25 21 24
20 16 13 18 21 24 24 21 19 21 20 18 13 15 14 12 14 16 16 16 21 23 26 25 28 31 31 31 31 30 33 39 42 44 32 26 24 25 29 24 19 21 20
21 19 22 21 21 23 22 21 16 21 21 21 23 18 16 17 19 19 16 15 19 22 27 30 31 31 30 31 30 33 44 42 37 37 33 20 20 19 16 14 13 14 13
27 26 24 21 21 21 19 20 19 23 23 24 27 21 22 20 22 21 21 20 22 23 25 31 30 29 30 30 30 35 39 33 26 18 18 7 17 16 16 15 17 20 15
29 22 24 22 20 20 21 23 23 28 29 30 29 30 28 21 21 21 20 25 25 28 29 33 32 29 26 25 26 33 37 34 32 22 17 8 8 16 20 24 25 18 27
22 21 26 24 24 27 26 26 29 33 35 32 32 37 27 20 20 22 21 23 26 27 30 29 26 24 22 20 23 35 39 36 30 27 8 8 11 15 20 20 24 14 18
28 12 25 26 26 28 28 28 28 33 35 35 36 29 26 24 26 20 18 23 26 25 25 26 23 20 20 19 23 37 34 30 29 23 8 4 8 18 18 17 25 29 26
29 25 21 24 25 28 33 32 31 34 33 32 28 30 33 32 24 19 20 24 23 24 24 23 20 20 20 20 26 34 30 29 23 22 10 5 9 14 16 18 20 30 25
27 26 23 37 40 37 30 27 30 30 26 25 32 36 31 22 18 16 19 22 22 21 20 19 18 17 21 20 25 29 31 30 26 14 5 8 10 12 15 16 19 22 27
25 23 31 44 38 31 26 27 31 28 26 27 34 34 22 20 16 13 14 17 18 18 16 16 17 19 22 22 28 28 25 24 23 15 15 8 10 12 16 20 24 23 20
25 28 42 47 43 36 30 28 30 31 34 37 30 34 37 29 17 6 16 11 15 17 17 17 21 24 25 26 20 17 11 6 11 21 12 11 12 14 19 23 24 24 17
29 34 46 45 41 39 34 25 28 28 29 33 27 20 15 19 14 2 8 11 15 17 19 24 24 12 8 5 7 10 11 12 12 5 10 15 14 18 22 25 24 18 14
36 32 42 42 39 32 25 27 28 26 27 29 17 24 22 16 19 10 20 24 25 22 24 18 16 12 16 14 16 15 7 9 19 7 4 14 21 24 25 25 21 13 9
44 33 40 45 42 27 18 24 25 12 30 27 11 18 16 21 4 15 10 14 22 14 5 12 5 3 2 13 11 11 2 18 22 13 10 24 31 29 26 20 16 12 11
44 39 29 28 28 33 23 20 19 14 19 26 9 19 12 11 7 21 20 25 22 22 11 6 9 2 5 4 4 8 17 12 4 16 10 36 18 24 28 12 16 14 16
46 27 26 25 26 24 12 14 23 14 17 10 18 18 11 16 21 22 23 25 17 9 20 9 2 6 11 8 9 19 6 9 14 10 20 22 16 19 21 10 14 14 15
29 23 29 23 31 26 23 29 19 26 18 26 23 4 11 13 17 21 20 18 10 19 17 14 8 6 13 8 19 18 10 15 3 13 14 18 14 16 21 14 14 11 11
38 42 22 30 28 24 26 31 16 19 30 19 19 0 10 12 15 6 5 8 6 9 4 5 2 11 4 8 17 12 8 9 16 39 21 7 7 9 17 22 17 8 6
40 33 29 25 25 27 22 14 15 26 19 21 15 14 15 3 17 3 14 2 7 10 6 8 11 8 15 27 17 7 10 6 18 18 4 13 2 5 13 19 15 4 6
42 33 31 28 33 26 24 22 20 21 9 28 13 22 9 14 17 16 7 9 4 4 11 11 8 6 11 23 23 28 22 13 9 8 9 9 9 17 6 4 12 4 8
43 37 40 32 30 33 23 20 24 21 17 11 24 10 11 13 15 22 9 11 6 2 15 6 7 4 13 20 14 24 29 19 6 12 4 7 11 15 6 9 11 13 6
46 40 41 41 41 34 28 31 15 26 23 25 32 20 11 20 20 12 16 12 10 5 11 12 10 5 5 14 21 17 3 9 18 9 2 3 7 12 13 6 8 7 6
50 49 49 47 41 40 34 28 21 23 37 24 26 22 21 17 13 20 14 17 16 7 10 11 3 2 9 9 16 13 7 15 22 3 3 5 9 21 12 7 8 2 5
55 53 48 50 46 42 44 40 26 25 25 18 28 19 26 19 18 17 12 15 17 15 11 4 3 5 6 9 7 7 15 14 13 12 16 10 11 9 2 30 8 12 9
66 61 46 41 47 39 51 35 36 36 17 20 24 25 24 22 22 22 21 12 10 21 16 13 5 10 6 2 3 6 8 21 11 21 17 10 16 5 6 14 24 10 8
58 53 48 34 41 48 42 48 41 36 34 33 30 26 28 23 16 24 22 13 18 13 12 16 12 6 10 6 9 3 13 18 23 19 24 25 19 7 17 1 8 9 14
Wind_Direction_500mb
135 123 115 115 120 117 121 116 114 119 123 118 109 94 95 101 106 106 110 110 108 110 110 111 107 100 106 113 115 118 116 111 100 90 92 101 105 99 106 102 89 106 104
162 179 144 122 122 123 115 102 113 120 122 120 108 93 101 102 109 109 106 111 109 109 111 107 105 106 108 110 110 108 102 95 89 80 82 77 92 100 101 102 96 102 104
139 156 155 146 130 121 127 122 125 131 128 122 107 90 92 97 110 103 104 118 121 113 108 108 108 106 105 103 106 106 102 99 95 97 75 50 84 93 98 92 90 95 103
135 151 148 144 136 127 122 126 134 141 130 123 120 110 93 93 102 102 101 108 118 117 113 112 114 109 107 107 108 109 106 95 84 82 123 83 52 86 84 78 67 64 56
149 148 146 145 139 131 131 131 126 130 129 120 116 109 99 91 100 96 101 106 107 110 110 114 111 110 106 105 107 111 111 97 91 91 131 195 21 89 82 74 62 65 14
137 141 139 141 134 131 135 140 137 135 135 135 130 113 104 93 102 100 108 113 116 118 118 116 112 107 100 102 110 118 111 105 107 114 150 135 77 84 73 81 48 13 34
120 132 146 142 132 132 136 136 137 138 139 135 131 127 123 110 109 106 120 125 122 122 125 121 112 103 101 107 112 121 109 98 89 127 211 58 83 68 62 56 50 28 17
128 130 143 153 152 139 136 131 128 129 131 139 145 131 125 116 115 121 131 134 127 128 125 117 109 104 106 103 112 124 119 110 109 127 217 330 55 63 56 34 26 25 23
119 113 149 148 140 134 131 130 128 132 128 136 137 136 129 123 124 138 152 139 126 130 123 117 109 106 100 100 108 114 115 120 127 143 197 21 7 20 18 11 6 5 18
114 96 123 153 146 142 129 131 129 127 121 127 128 131 125 112 117 130 136 141 132 131 125 114 111 101 91 92 103 98 109 131 132 143 187 9 355 355 356 349 350 356 7
109 107 123 138 140 137 138 124 123 130 127 126 121 122 117 116 88 128 134 153 141 132 126 118 108 105 98 91 96 82 89 62 193 183 177 1 348 345 346 341 347 350 351
117 112 124 119 123 131 138 125 129 132 126 126 124 129 129 154 133 158 137 139 130 123 115 111 105 83 33 45 65 35 20 41 69 352 302 355 352 348 344 342 342 346 350
138 128 127 126 130 127 125 134 130 127 119 140 127 118 109 110 138 147 92 107 109 104 110 114 54 22 13 331 269 300 47 249 27 5 261 352 350 341 335 341 341 353 6
150 155 131 122 122 115 113 126 106 162 142 115 99 113 121 149 177 176 289 221 201 195 178 260 195 287 228 168 1 249 354 353 51 100 10 18 356 351 348 348 14 45 66
151 153 170 169 147 130 142 120 141 163 146 153 165 150 147 119 206 175 211 224 193 194 144 79 108 140 287 163 337 340 304 6 349 26 328 350 322 353 351 9 38 66 73
159 168 166 163 137 138 151 175 125 134 195 165 160 176 172 164 202 188 207 202 222 39 135 125 147 39 338 53 342 335 18 334 0 3 323 356 52 10 10 46 50 80 81
163 158 144 153 149 172 180 164 164 141 169 167 197 152 146 142 218 212 165 70 109 135 104 80 61 9 343 302 313 329 3 3 93 338 304 16 11 12 20 39 47 79 96
155 155 160 166 161 174 175 152 191 185 157 202 160 160 189 118 150 183 210 108 142 49 8 314 353 296 229 273 237 215 262 317 255 336 76 125 19 353 21 27 35 71 105
163 163 164 168 167 167 186 166 170 165 148 170 197 177 131 63 162 215 43 15 188 99 353 321 24 303 10 347 10 339 290 339 330 11 70 117 39 107 37 52 47 30 73
173 174 166 169 182 170 184 184 159 175 203 184 147 175 170 190 202 153 200 266 162 94 283 267 256 21 24 336 332 326 327 109 296 170 252 183 32 89 64 59 33 135 80
164 173 177 178 186 188 201 167 186 176 178 177 170 199 207 194 225 186 132 283 291 214 249 274 216 296 339 318 323 348 334 276 225 207 43 52 112 128 211 8 29 74 32
171 178 179 189 193 182 192 173 202 198 188 209 221 204 222 201 222 188 214 219 274 197 320 264 253 238 1 322 344 10 26 128 347 352 127 80 6 218 140 95 18 357 66
177 185 187 185 198 182 179 202 215 196 211 207 207 166 195 211 229 191 234 219 232 159 278 302 170 331 317 349 360 31 350 346 349 321 338 13 327 74 140 247 176 235 286
189 189 185 187 203 188 183 199 211 201 198 217 198 216 212 219 187 248 228 245 231 182 229 156 195 187 17 19 359 347 2 359 14 337 346 333 323 63 84 332 46 148 236
172 181 184 187 202 195 190 190 206 200 248 202 200 204 203 197 203 205 235 238 210 183 199 182 186 201 190 353 60 343 324 320 324 317 343 320 313 57 282 25 13 153 174
178 179 189 186 191 191 198 194 195 200 227 208 210 214 202 222 224 196 232 214 179 193 198 188 201 180 240 251 282 10 319 354 342 342 327 359 4 299 172 183 21 123 316
Wind_Speed_850mb
17 15 11 15 19 22 20 20 19 20 21 18 16 16 15 16 18 19 19 17 19 23 25 27 30 27 27 30 30 28 27 26 28 29 28 30 32 29 34 36 25 21 24
20 16 13 18 21 24 24 21 19 21 20 18 13 15 14 12 14 16 16 16 21 23 26 25 28 31 31 31 31 30 33 39 42 44 32 26 24 25 29 24 19 21 20
21 19 22 21 21 23 22 21 16 21 21 21 23 18 16 17 19 19 16 15 19 22 27 30 31 31 30 31 30 33 44 42 37 37 33 20 20 19 16 14 13 14 13
27 26 24 21 21 21 19 20 19 23 23 24 27 21 22 20 22 21 21 20 22 23 25 31 30 29 30 30 30 35 39 33 26 18 18 7 17 16 16 15 17 20 15
29 22 24 22 20 20 21 23 23 28 29 30 29 30 28 21 21 21 20 25 25 28 29 33 32 29 26 25 26 33 37 34 32 22 17 8 8 16 20 24 25 18 27
22 21 26 24 24 27 26 26 29 33 35 32 32 37 27 20 20 22 21 23 26 27 30 29 26 24 22 20 23 35 39 36 30 27 8 8 11 15 20 20 24 14 18
28 12 25 26 26 28 28 28 28 33 35 35 36 29 26 24 26 20 18 23 26 25 25 26 23 20 20 19 23 37 34 30 29 23 8 4 8 18 18 17 25 29 26
29 25 21 24 25 28 33 32 31 34 33 32 28 30 33 32 24 19 20 24 23 24 24 23 20 20 20 20 26 34 30 29 23 22 10 5 9 14 16 18 20 30 25
27 26 23 37 40 37 30 27 30 30 26 25 32 36 31 22 18 16 19 22 22 21 20 19 18 17 21 20 25 29 31 30 26 14 5 8 10 12 15 16 19 22 27
25 23 31 44 38 31 26 27 31 28 26 27 34 34 22 20 16 13 14 17 18 18 16 16 17 19 22 22 28 28 25 24 23 15 15 8 10 12 16 20 24 23 20
25 28 42 47 43 36 30 28 30 31 34 37 30 34 37 29 17 6 16 11 15 17 17 17 21 24 25 26 20 17 11 6 11 21 12 11 12 14 19 23 24 24 17
29 34 46 45 41 39 34 25 28 28 29 33 27 20 15 19 14 2 8 11 15 17 19 24 24 12 8 5 7 10 11 12 12 5 10 15 14 18 22 25 24 18 14
36 32 42 42 39 32 25 27 28 26 27 29 17 24 22 16 19 10 20 24 25 22 24 18 16 12 16 14 16 15 7 9 19 7 4 14 21 24 25 25 21 13 9
44 33 40 45 42 27 18 24 25 12 30 27 11 18 16 21 4 15 10 14 22 14 5 12 5 3 2 13 11 11 2 18 22 13 10 24 31 29 26 20 16 12 11
44 39 29 28 28 33 23 20 19 14 19 26 9 19 12 11 7 21 20 25 22 22 11 6 9 2 5 4 4 8 17 12 4 16 10 36 18 24 28 12 16 14 16
46 27 26 25 26 24 12 14 23 14 17 10 18 18 11 16 21 22 23 25 17 9 20 9 2 6 11 8 9 19 6 9 14 10 20 22 16 19 21 10 14 14 15
29 23 29 23 31 26 23 29 19 26 18 26 23 4 11 13 17 21 20 18 10 19 17 14 8 6 13 8 19 18 10 15 3 13 14 18 14 16 21 14 14 11 11
38 42 22 30 28 24 26 31 16 19 30 19 19 0 10 12 15 6 5 8 6 9 4 5 2 11 4 8 17 12 8 9 16 39 21 7 7 9 17 22 17 8 6
40 33 29 25 25 27 22 14 15 26 19 21 15 14 15 3 17 3 14 2 7 10 6 8 11 8 15 27 17 7 10 6 18 18 4 13 2 5 13 19 15 4 6
42 33 31 28 33 26 24 22 20 21 9 28 13 22 9 14 17 16 7 9 4 4 11 11 8 6 11 23 23 28 22 13 9 8 9 9 9 17 6 4 12 4 8
43 37 40 32 30 33 23 20 24 21 17 11 24 10 11 13 15 22 9 11 6 2 15 6 7 4 13 20 14 24 29 19 6 12 4 7 11 15 6 9 11 13 6
46 40 41 41 41 34 28 31 15 26 23 25 32 20 11 20 20 12 16 12 10 5 11 12 10 5 5 14 21 17 3 9 18 9 2 3 7 12 13 6 8 7 6
50 49 49 47 41 40 34 28 21 23 37 24 26 22 21 17 13 20 14 17 16 7 10 11 3 2 9 9 16 13 7 15 22 3 3 5 9 21 12 7 8 2 5
55 53 48 50 46 42 44 40 26 25 25 18 28 19 26 19 18 17 12 15 17 15 11 4 3 5 6 9 7 7 15 14 13 12 16 10 11 9 2 30 8 12 9
66 61 46 41 47 39 51 35 36 36 17 20 24 25 24 22 22 22 21 12 10 21 16 13 5 10 6 2 3 6 8 21 11 21 17 10 16 5 6 14 24 10 8
58 53 48 34 41 48 42 48 41 36 34 33 30 26 28 23 16 24 22 13 18 13 12 16 12 6 10 6 9 3 13 18 23 19 24 25 19 7 17 1 8 9 14
Wind_Direction_850mb
135 123 115 115 120 117 121 116 114 119 123 118 109 94 95 101 106 106 110 110 108 110 110 111 107 100 106 113 115 118 116 111 100 90 92 101 105 99 106 102 89 106 104
162 179 144 122 122 123 115 102 113 120 122 120 108 93 101 102 109 109 106 111 109 109 111 107 105 106 108 110 110 108 102 95 89 80 82 77 92 100 101 102 96 102 104
139 156 155 146 130 121 127 122 125 131 128 122 107 90 92 97 110 103 104 118 121 113 108 108 108 106 105 103 106 106 102 99 95 97 75 50 84 93 98 92 90 95 103
135 151 148 144 136 127 122 126 134 141 130 123 120 110 93 93 102 102 101 108 118 117 113 112 114 109 107 107 108 109 106 95 84 82 123 83 52 86 84 78 67 64 56
149 148 146 145 139 131 131 131 126 130 129 120 116 109 99 91 100 96 101 106 107 110 110 114 111 110 106 105 107 111 111 97 91 91 131 195 21 89 82 74 62 65 14
137 141 139 141 134 131 135 140 137 135 135 135 130 113 104 93 102 100 108 113 116 118 118 116 112 107 100 102 110 118 111 105 107 114 150 135 77 84 73 81 48 13 34
120 132 146 142 132 132 136 136 137 138 139 135 131 127 123 110 109 106 120 125 122 122 125 121 112 103 101 107 112 121 109 98 89 127 211 58 83 68 62 56 50 28 17
128 130 143 153 152 139 136 131 128 129 131 139 145 131 125 116 115 121 131 134 127 128 125 117 109 104 106 103 112 124 119 110 109 127 217 330 55 63 56 34 26 25 23
119 113 149 148 140 134 131 130 128 132 128 136 137 136 129 123 124 138 152 139 126 130 123 117 109 106 100 100 108 114 115 120 127 143 197 21 7 20 18 11 6 5 18
114 96 123 153 146 142 129 131 129 127 121 127 128 131 125 112 117 130 136 141 132 131 125 114 111 101 91 92 103 98 109 131 132 143 187 9 355 355 356 349 350 356 7
109 107 123 138 140 137 138 124 123 130 127 126 121 122 117 116 88 128 134 153 141 132 126 118 108 105 98 91 96 82 89 62 193 183 177 1 348 345 346 341 347 350 351
117 112 124 119 123 131 138 125 129 132 126 126 124 129 129 154 133 158 137 139 130 123 115 111 105 83 33 45 65 35 20 41 69 352 302 355 352 348 344 342 342 346 350
138 128 127 126 130 127 125 134 130 127 119 140 127 118 109 110 138 147 92 107 109 104 110 114 54 22 13 331 269 300 47 249 27 5 261 352 350 341 335 341 341 353 6
150 155 131 122 122 115 113 126 106 162 142 115 99 113 121 149 177 176 289 221 201 195 178 260 195 287 228 168 1 249 354 353 51 100 10 18 356 351 348 348 14 45 66
151 153 170 169 147 130 142 120 141 163 146 153 165 150 147 119 206 175 211 224 193 194 144 79 108 140 287 163 337 340 304 6 349 26 328 350 322 353 351 9 38 66 73
159 168 166 163 137 138 151 175 125 134 195 165 160 176 172 164 202 188 207 202 222 39 135 125 147 39 338 53 342 335 18 334 0 3 323 356 52 10 10 46 50 80 81
163 158 144 153 149 172 180 164 164 141 169 167 197 152 146 142 218 212 165 70 109 135 104 80 61 9 343 302 313 329 3 3 93 338 304 16 11 12 20 39 47 79 96
155 155 160 166 161 174 175 152 191 185 157 202 160 160 189 118 150 183 210 108 142 49 8 314 353 296 229 273 237 215 262 317 255 336 76 125 19 353 21 27 35 71 105
163 163 164 168 167 167 186 166 170 165 148 170 197 177 131 63 162 215 43 15 188 99 353 321 24 303 10 347 10 339 290 339 330 11 70 117 39 107 37 52 47 30 73
173 174 166 169 182 170 184 184 159 175 203 184 147 175 170 190 202 153 200 266 162 94 283 267 256 21 24 336 332 326 327 109 296 170 252 183 32 89 64 59 33 135 80
164 173 177 178 186 188 201 167 186 176 178 177 170 199 207 194 225 186 132 283 291 214 249 274 216 296 339 318 323 348 334 276 225 207 43 52 112 128 211 8 29 74 32
171 178 179 189 193 182 192 173 202 198 188 209 221 204 222 201 222 188 214 219 274 197 320 264 253 238 1 322 344 10 26 128 347 352 127 80 6 218 140 95 18 357 66
177 185 187 185 198 182 179 202 215 196 211 207 207 166 195 211 229 191 234 219 232 159 278 302 170 331 317 349 360 31 350 346 349 321 338 13 327 74 140 247 176 235 286
189 189 185 187 203 188 183 199 211 201 198 217 198 216 212 219 187 248 228 245 231 182 229 156 195 187 17 19 359 347 2 359 14 337 346 333 323 63 84 332 46 148 236
172 181 184 187 202 195 190 190 206 200 248 202 200 204 203 197 203 205 235 238 210 183 199 182 186 201 190 353 60 343 324 320 324 317 343 320 313 57 282 25 13 153 174
178 179 189 186 191 191 198 194 195 200 227 208 210 214 202 222 224 196 232 214 179 193 198 188 201 180 240 251 282 10 319 354 342 342 327 359 4 299 172 183 21 123 316